This is the latest recevied weather packets stored in our database for station/object KC3QLX. If no packets are shown the sender has not sent any weather packets the latest 10 day(s).
| Time | Temp. | Humidity | Pressure | Rain* | Wind** | Luminosity | Snow |
|---|---|---|---|---|---|---|---|
| 1777931396 | 23.33° C | 40% | 1008.1 hPa | 0 mm | - | 241 W/m² | - |
| 1777931093 | 22.78° C | 41% | 1008 hPa | 0 mm | - | 264 W/m² | - |
| 1777930789 | 22.78° C | 40% | 1008 hPa | 0 mm | - | 255 W/m² | - |
| 1777930485 | 22.22° C | 40% | 1008.2 hPa | 0 mm | - | 292 W/m² | - |
| 1777930183 | 22.78° C | 40% | 1008.1 hPa | 0 mm | - | 301 W/m² | - |
| 1777929878 | 23.33° C | 40% | 1008.1 hPa | 0 mm | - | 317 W/m² | - |
| 1777929577 | 22.78° C | 39% | 1008.1 hPa | 0 mm | - | 345 W/m² | - |
| 1777929272 | 23.33° C | 39% | 1008.1 hPa | 0 mm | - | 348 W/m² | - |
| 1777928970 | 22.78° C | 39% | 1008.2 hPa | 0 mm | - | 364 W/m² | - |
| 1777928667 | 22.78° C | 42% | 1008.3 hPa | 0 mm | - | 379 W/m² | - |
| 1777928364 | 22.22° C | 39% | 1008.3 hPa | 0 mm | - | 391 W/m² | - |
| 1777928062 | 22.78° C | 39% | 1008.4 hPa | 0 mm | - | 403 W/m² | - |
| 1777927759 | 22.78° C | 40% | 1008.4 hPa | 0 mm | - | 418 W/m² | - |
| 1777927458 | 22.78° C | 39% | 1008.5 hPa | 0 mm | - | 440 W/m² | - |
| 1777927157 | 22.22° C | 40% | 1008.5 hPa | 0 mm | - | 434 W/m² | - |
| 1777926854 | 22.78° C | 44% | 1008.7 hPa | 0 mm | - | 421 W/m² | - |
| 1777926549 | 22.78° C | 41% | 1008.7 hPa | 0 mm | - | 425 W/m² | - |
| 1777926246 | 22.78° C | 39% | 1008.7 hPa | 0 mm | - | 458 W/m² | - |
| 1777925943 | 22.78° C | 40% | 1008.7 hPa | 0 mm | - | 431 W/m² | - |
| 1777925641 | 22.22° C | 39% | 1009 hPa | 0 mm | - | 489 W/m² | - |
| 1777925338 | 22.22° C | 39% | 1008.7 hPa | 0 mm | - | 505 W/m² | - |
| 1777925034 | 22.22° C | 40% | 1009 hPa | 0 mm | - | 502 W/m² | - |
| 1777924731 | 21.67° C | 41% | 1009 hPa | 0 mm | - | 521 W/m² | - |
| 1777924426 | 22.22° C | 41% | 1009.1 hPa | 0 mm | - | 113 W/m² | - |
| 1777924123 | 22.22° C | 41% | 1009.3 hPa | 0 mm | - | 515 W/m² | - |
* Rain latest hour (hover to see other rain measurements)
** Current wind speed in m/s (hover to see current wind gust speed)